User: anonymous   Login
Location: Mentone
(34.5413°N, 85.5351°W)
Time: 14:59:48
(UTC-06:00)
Language:

Cosmos 2026 Rocket - Orbit

View from above orbital plane
View from above orbital plane
View from above satellite
View from above satellite

Ground track
Ground track

The orbit data is extracted from the following two-line orbital elements,

1 20046U 89042B   15027.08853244  .00000196  00000-0  17892-3 0  4322
2 20046 082.9349 233.0413 0041699 355.4781 124.7468 13.77990910289149
Epoch (UTC): 27 January 2015 02:07:29
Eccentricity: 0.0041699
inclination: 82.9349°
perigee height: 940 km
apogee height: 1001 km
right ascension of ascending node: 233.0413°
argument of perigee: 355.4781°
revolutions per day: 13.77990910
mean anomaly at epoch: 124.7468°
orbit number at epoch: 28914

The dashed part of the orbit path shows where the satellite is in the earth's shadow,  

DLR